x

La Perouse Bank (46206) Wave Buoy

3:00 - Wed 18th Jan 2017 All times are PST. -8 hours from GMT.

  • Sig Wave height 15.7ft
  • Peak Period 11s
  • Wind
    16mph, 18mph gusts
  • Sea Temp 53°f
  • Aire Temp 51°f
  • Sea Pressure 989.7mb
  • La Perouse Bank
  • La Perouse Bank

More Historic Weather Station data

Upgrade to MSW Pro to gain access to the past 30 days of data for over 8000 Wavebouys and Weather Stations around the globe.

Join Pro

Comparision Forecast

View Surf forecast
   
mié 01/18 3:00 15.5ft 11s 16 18 mph 989.7mb 53f 51f
1:00 17.5ft 11s 22
mph
989.8mb 53f 51f
12:00 19ft 12s 22 29 mph 990.2mb 54f 51f
mar 01/17 11:00 18.5ft 12s 25 29 mph 990.1mb 57f 51f
10:00 19.5ft 11s 27 31 mph 989.6mb 53f 51f
9:00 19.5ft 10s 25 31 mph 988.7mb 53f 51f
8:00 19ft 10s 27 34 mph 988.1mb 53f 51f
6:00 18.5ft 10s 29 36 mph 987.1mb 55f 51f
5:00  -   -  27
mph
987.2mb - 51f
4:00 18.5ft 14s 31 38 mph 988.2mb 57f 49f
3:00 19ft 14s 34 43 mph 989.3mb 53f 48f
2:00 18.5ft 15s 31 40 mph 991.7mb 53f 49f
1:00 19ft 14s 29 36 mph 994.5mb 54f 49f
12:00 18.5ft 10s 27 34 mph 996.4mb 52f 50f
11:00  -   -  27
mph
- - -
10:00 20.5ft 16s 29 36 mph 997.4mb 58f 51f
9:00 21.5ft 15s 29 36 mph 997mb 52f 51f
8:00 19ft 17s 31 38 mph 996.3mb 52f 50f
7:00 20ft 8s 34 40 mph 996.3mb 56f 50f
6:00 19ft 8s 34 40 mph 997mb 51f 49f
5:00 18.5ft 8s 34 40 mph 998.3mb 56f 48f
4:00 16.5ft 17s 34 43 mph 999.8mb 54f 48f
2:00 15.5ft 14s 36 45 mph 1001.4mb 56f 48f
1:00 14.5ft 14s 34 40 mph 1003.8mb 52f 49f
12:00 13.5ft 8s 29 36 mph 1005.7mb 53f 49f
lun 01/16 10:00 12ft 7s 27 31 mph 1007.4mb 52f 49f
9:00 12.5ft 8s 25 31 mph 1007.8mb 54f 49f
6:00 12ft 8s 27 34 mph 1009.7mb 51f 48f
5:00 12ft 8s 27 34 mph 1010.7mb 51f 46f
4:00 12.5ft 7s 25 31 mph 1011.6mb 54f 46f
3:00 12ft 6s 27 31 mph 1012mb 53f 45f
2:00 11ft 6s 29 36 mph 1011.4mb 54f 46f
1:00 10.5ft 6s 31 38 mph 1011.9mb 52f 45f
11:00 10ft 14s 29 36 mph 1015.5mb 53f 46f
10:00 9ft 6s 29
mph
1016.5mb 53f 46f
9:00 9ft 14s 29 36 mph 1017.1mb 53f 46f
8:00 8ft 14s 25 29 mph 1017.7mb 52f 46f
7:00 8ft 15s 27 31 mph 1018.6mb 51f 45f
6:00 8ft 15s 25 31 mph 1018.9mb 53f 46f
5:00 8ft 14s 22 29 mph 1020.3mb 52f 45f
4:00 8ft 14s 25 29 mph 1020.5mb 53f 45f
3:00 8ft 15s 22 27 mph 1021.4mb 53f 46f
2:00  -   -  25
mph
- - -
1:00 8.5ft 15s 22 27 mph 1022.4mb 56f 46f
12:00 10ft 14s 20 27 mph 1023.1mb 52f 45f
dom 01/15 11:00 9ft 13s 22 27 mph 1023.5mb 54f 46f
10:00 9.5ft 16s 22 27 mph 1023.7mb 55f 46f
9:00 9ft 16s 20 27 mph 1023.7mb 50f 45f
8:00 9ft 15s 20 27 mph 1023.7mb 54f 46f
7:00 9ft 16s 18 22 mph 1024mb 54f 45f
6:00 8.5ft 17s 16 20 mph 1023.9mb 51f 45f
5:00 10ft 16s 13 18 mph 1024.2mb 53f 45f
4:00 9ft 17s 16 18 mph 1023.9mb 53f 45f
3:00 8ft 17s 16 20 mph 1024mb 52f 45f
2:00 8ft 12s 16 20 mph 1023.9mb 53f 45f
1:00 8ft 17s 13 18 mph 1024.4mb 55f 45f
12:00 7.5ft 12s 16 18 mph 1025.1mb 53f 45f
11:00 7.5ft 12s 13 18 mph 1025.9mb 52f 44f
10:00 8ft 10s 16 20 mph 1025.3mb 53f 44f
9:00 7.5ft 10s 16 18 mph 1025.2mb 53f 44f
8:00 7ft 10s 13 18 mph 1025mb 53f 44f
7:00 7.5ft 10s 13 18 mph 1025mb 50f 44f
6:00 7ft 10s 13 18 mph 1024.9mb 51f 44f
5:00 7ft 10s 13 16 mph 1024.7mb 53f 43f
4:00 6.5ft 10s 11 16 mph 1025.4mb 51f 44f
3:00 7ft 11s 13 16 mph 1025mb 51f 44f
2:00 7ft 10s 11 16 mph 1024.9mb 51f 44f
1:00 6.5ft 10s 13 18 mph 1024.8mb 52f 44f
12:00 6.5ft 10s 9 13 mph 1025.6mb 50f 44f
sáb 01/14 11:00 7ft 10s 11 16 mph 1025.8mb 51f 44f
10:00 7ft 10s 18 20 mph 1024.4mb 52f 44f
9:00 7ft 11s 13 18 mph 1024.6mb 51f 44f
8:00 8ft 10s 13 18 mph 1024.8mb 56f 44f
7:00 8ft 10s 16 18 mph 1025mb 52f 44f
6:00 7ft 10s 16 18 mph 1025.1mb 51f 44f
5:00 8ft 11s 18 20 mph 1024.9mb 58f 44f
4:00 8ft 11s 18 22 mph 1024.8mb 50f 44f
3:00 7.5ft 11s 16 20 mph 1025.2mb 50f 44f
2:00 7.5ft 12s 18 22 mph 1024.7mb 54f 44f